Juneau, WI

8:05 AM CDT on May 22, 2018 (GMT -0500)
Dodge County

Weather History for KUNU - May, 2014

Change the Weather History Date:

Friday, May 2, 2014

  Actual Average Record
Temperature  
Mean Temperature 47 °F -  
Max Temperature 51 °F 61 °F 84 °F (1992)
Min Temperature 43 °F 43 °F 29 °F (1978)
Degree Days  
Heating Degree Days 18    
Moisture  
Dew Point 40 °F    
Average Humidity 80    
Maximum Humidity 93    
Minimum Humidity 57    
Precipitation  
Precipitation 0.01 in - - ()
Sea Level Pressure  
Sea Level Pressure 29.73 in    
Wind  
Wind Speed 8 mph (SW)    
Max Wind Speed 16 mph    
Max Gust Speed 18 mph    
Visibility 10 miles    
Events Rain    
Averages and records for this station are not official NWS values.
T = Trace of Precipitation, MM = Missing Value Source: NWS Daily Summary

Daily Weather History Graph

Daily Weather History Graph

Search for Another Location

Airport or City:

Astronomy

May. 02, 2014 Rise Set
Actual Time 5:46 AM CDT 7:57 PM CDT
Civil Twilight 5:14 AM CDT 8:29 PM CDT
Nautical Twilight 4:36 AM CDT 9:08 PM CDT
Astronomical Twilight 3:53 AM CDT 9:51 PM CDT
Moon 8:21 AM CDT (5/2) 11:21 PM CDT (5/2)
Length of Visible Light 15h 14m
Length of Day
14h 11m
Waxing Crescent, 12% of the Moon is Illuminated
May 2
Waxing Crescent
May 6
First Quarter
May 14
Full
May 21
Last Quarter
May 28
New

Hourly Weather History & Observations

Time (CDT) Temp. Windchill Dew Point Humidity Pressure Visibility Wind Dir Wind Speed Gust Speed Precip Events Conditions
12:15 AM 45.0 °F 40.6 °F 42.8 °F 92% 29.77 in 10.0 mi West 8.1 mph - N/A   Overcast
12:35 AM 44.8 °F 41.0 °F 42.8 °F 93% 29.77 in 7.0 mi West 6.9 mph - N/A   Overcast
12:55 AM 44.6 °F 39.2 °F 42.4 °F 92% 29.77 in 10.0 mi West 10.4 mph - N/A   Overcast
1:15 AM 44.6 °F 41.4 °F 42.3 °F 91% 29.77 in 10.0 mi West 5.8 mph - N/A   Overcast
1:35 AM 44.6 °F 41.4 °F 42.3 °F 91% 29.76 in 7.0 mi West 5.8 mph - N/A   Overcast
1:55 AM 44.1 °F 40.1 °F 42.1 °F 93% 29.76 in 10.0 mi West 6.9 mph - N/A   Overcast
2:15 AM 43.9 °F 40.5 °F 41.9 °F 93% 29.76 in 10.0 mi West 5.8 mph - N/A   Overcast
2:35 AM 43.9 °F 39.3 °F 41.4 °F 91% 29.76 in 10.0 mi WSW 8.1 mph - N/A   Overcast
2:55 AM 43.7 °F 39.7 °F 41.5 °F 92% 29.75 in 5.0 mi WSW 6.9 mph - N/A   Overcast
3:15 AM 43.7 °F 42.1 °F 41.5 °F 92% 29.76 in 10.0 mi West 3.5 mph - N/A   Overcast
3:35 AM 43.7 °F 38.6 °F 40.8 °F 90% 29.76 in 10.0 mi WSW 9.2 mph - N/A   Overcast
3:55 AM 43.7 °F 39.1 °F 41.0 °F 90% 29.76 in 10.0 mi WSW 8.1 mph - N/A   Overcast
4:15 AM 43.7 °F 39.1 °F 40.8 °F 90% 29.76 in 10.0 mi WSW 8.1 mph - N/A   Overcast
4:35 AM 43.7 °F 39.7 °F 40.6 °F 89% 29.76 in 10.0 mi WSW 6.9 mph - N/A   Overcast
4:55 AM 43.7 °F 38.6 °F 40.3 °F 88% 29.76 in 10.0 mi WSW 9.2 mph - N/A   Overcast
5:15 AM 43.5 °F 39.4 °F 40.1 °F 88% 29.76 in 10.0 mi WSW 6.9 mph - N/A   Overcast
5:35 AM 43.3 °F 38.6 °F 39.7 °F 87% 29.76 in 10.0 mi WSW 8.1 mph - N/A   Overcast
5:55 AM 43.3 °F 38.6 °F 39.7 °F 87% 29.76 in 10.0 mi West 8.1 mph - N/A   Overcast
6:15 AM 43.3 °F 39.2 °F 39.7 °F 87% 29.76 in 10.0 mi WSW 6.9 mph - N/A   Overcast
6:35 AM 43.3 °F 39.2 °F 39.7 °F 87% 29.76 in 10.0 mi WSW 6.9 mph - N/A   Overcast
6:55 AM 43.5 °F 39.4 °F 40.1 °F 88% 29.77 in 10.0 mi WSW 6.9 mph - N/A   Overcast
7:15 AM 43.7 °F 38.6 °F 40.1 °F 87% 29.77 in 10.0 mi WSW 9.2 mph - N/A   Overcast
7:35 AM 43.7 °F 39.1 °F 40.3 °F 88% 29.77 in 10.0 mi WSW 8.1 mph - N/A   Overcast
7:55 AM 43.9 °F 39.3 °F 40.5 °F 88% 29.77 in 10.0 mi WSW 8.1 mph - N/A   Overcast
8:15 AM 44.1 °F 39.0 °F 40.8 °F 88% 29.77 in 10.0 mi WSW 9.2 mph - N/A   Overcast
8:35 AM 44.6 °F 40.2 °F 40.5 °F 85% 29.77 in 10.0 mi WSW 8.1 mph - N/A   Overcast
8:55 AM 45.1 °F 40.3 °F 40.3 °F 83% 29.76 in 10.0 mi WSW 9.2 mph - N/A   Overcast
9:15 AM 45.9 °F 41.7 °F 39.6 °F 79% 29.76 in 10.0 mi WSW 8.1 mph - N/A   Overcast
9:35 AM 45.7 °F 41.0 °F 39.4 °F 79% 29.76 in 10.0 mi WSW 9.2 mph - N/A   Overcast
9:55 AM 47.1 °F - 40.5 °F 78% 29.75 in 10.0 mi WSW 10.4 mph - N/A   Overcast
10:15 AM 46.2 °F 40.8 °F 39.0 °F 76% 29.76 in 10.0 mi SW 11.5 mph - N/A   Overcast
10:35 AM 46.4 °F 41.1 °F 39.2 °F 76% 29.76 in 10.0 mi WSW 11.5 mph - N/A   Overcast
10:55 AM 46.4 °F 40.4 °F 38.3 °F 73% 29.76 in 10.0 mi WSW 13.8 mph 17.3 mph N/A   Overcast
11:15 AM 46.4 °F 40.7 °F 37.6 °F 71% 29.76 in 10.0 mi WSW 12.7 mph - N/A   Overcast
11:35 AM 45.7 °F 38.8 °F 36.9 °F 71% 29.76 in 10.0 mi WSW 16.1 mph - N/A   Overcast
11:55 AM 45.5 °F 40.3 °F 36.3 °F 70% 29.76 in 10.0 mi WSW 10.4 mph - N/A   Overcast
12:15 PM 47.1 °F - 36.5 °F 67% 29.76 in 10.0 mi WSW 9.2 mph - N/A   Overcast
12:35 PM 46.6 °F - 36.0 °F 67% 29.75 in 10.0 mi West 10.4 mph - N/A   Overcast
12:55 PM 46.4 °F 41.9 °F 36.1 °F 67% 29.75 in 10.0 mi WSW 9.2 mph - N/A   Overcast
1:15 PM 46.6 °F - 36.5 °F 68% 29.75 in 10.0 mi WSW 10.4 mph - N/A   Overcast
1:35 PM 47.8 °F - 37.4 °F 67% 29.75 in 10.0 mi WSW 11.5 mph - N/A   Overcast
1:55 PM 47.7 °F - 37.6 °F 68% 29.75 in 10.0 mi SW 11.5 mph - N/A   Overcast
2:15 PM 48.2 °F - 37.8 °F 67% 29.74 in 10.0 mi WSW 10.4 mph - N/A   Overcast
2:35 PM 48.7 °F - 37.6 °F 65% 29.73 in 10.0 mi SW 9.2 mph - N/A   Overcast
2:55 PM 51.8 °F - 38.1 °F 60% 29.72 in 10.0 mi SW 10.4 mph 16.1 mph N/A   Mostly Cloudy
3:15 PM 50.0 °F - 35.2 °F 57% 29.72 in 10.0 mi SW 10.4 mph - N/A   Overcast
3:35 PM 50.7 °F - 36.1 °F 57% 29.72 in 10.0 mi SW 13.8 mph - N/A   Overcast
3:55 PM 50.7 °F - 36.5 °F 58% 29.72 in 10.0 mi SW 15.0 mph - N/A   Overcast
4:15 PM 50.0 °F - 36.5 °F 60% 29.72 in 10.0 mi SW 12.7 mph - N/A   Overcast
4:35 PM 50.4 °F - 36.5 °F 59% 29.72 in 10.0 mi SW 12.7 mph 18.4 mph N/A   Overcast
4:55 PM 49.8 °F - 37.2 °F 62% 29.72 in 10.0 mi SW 12.7 mph - N/A   Light Drizzle
5:15 PM 49.1 °F - 38.8 °F 68% 29.72 in 10.0 mi SW 8.1 mph - N/A Rain Rain
5:35 PM 49.3 °F - 39.4 °F 69% 29.72 in 10.0 mi SW 10.4 mph - N/A   Light Drizzle
5:55 PM 48.2 °F - 40.6 °F 75% 29.72 in 10.0 mi SSW 9.2 mph - N/A Rain Rain
6:15 PM 48.0 °F - 41.9 °F 79% 29.71 in 10.0 mi South 5.8 mph - N/A   Overcast
6:35 PM 47.8 °F - 41.2 °F 78% 29.71 in 10.0 mi South 5.8 mph - N/A   Overcast
6:55 PM 47.8 °F - 41.7 °F 79% 29.70 in 10.0 mi SSE 4.6 mph - N/A   Overcast
7:15 PM 47.8 °F - 41.9 °F 80% 29.70 in 10.0 mi SE 5.8 mph - N/A   Overcast
7:35 PM 47.7 °F - 42.1 °F 81% 29.70 in 7.0 mi SE 6.9 mph - N/A   Drizzle
7:55 PM 47.1 °F - 42.4 °F 84% 29.69 in 10.0 mi SE 5.8 mph - N/A   Mostly Cloudy
8:15 PM 46.9 °F - 42.3 °F 84% 29.69 in 10.0 mi SE 8.1 mph - N/A   Mostly Cloudy
8:35 PM 46.6 °F - 42.3 °F 85% 29.69 in 10.0 mi ESE 6.9 mph - N/A   Overcast
8:55 PM 46.6 °F - 42.1 °F 84% 29.69 in 10.0 mi SE 6.9 mph - N/A   Overcast
9:15 PM 46.4 °F 43.5 °F 42.3 °F 85% 29.69 in 10.0 mi ESE 5.8 mph - N/A   Overcast
9:35 PM 46.6 °F - 42.4 °F 85% 29.69 in 10.0 mi ESE 8.1 mph - N/A Rain Light Rain
9:55 PM 46.0 °F 41.4 °F 42.8 °F 88% 29.68 in 10.0 mi ESE 9.2 mph - 0.01 in Rain Light Rain
10:15 PM 46.0 °F 41.4 °F 43.0 °F 89% 29.67 in 10.0 mi ESE 9.2 mph - N/A   Overcast
10:35 PM 46.2 °F 42.7 °F 43.0 °F 88% 29.66 in 10.0 mi ESE 6.9 mph - N/A   Overcast
10:55 PM 46.4 °F 42.9 °F 43.0 °F 88% 29.66 in 10.0 mi SE 6.9 mph - N/A Rain Rain
11:15 PM 46.2 °F 41.7 °F 43.0 °F 88% 29.64 in 10.0 mi SE 9.2 mph - N/A   Drizzle
11:35 PM 46.0 °F 41.4 °F 42.8 °F 88% 29.64 in 10.0 mi SE 9.2 mph - N/A   Overcast
11:55 PM 45.9 °F 42.9 °F 42.6 °F 88% 29.64 in 10.0 mi SE 5.8 mph - N/A   Overcast